Hourly Weather Roundup
Issued by NWS Central Illinois

Home | Current Version | Previous Version | Text Only | Print | Product List | Glossary On
Versions: 1 2 3 4 5 6 7 8 9 10 11 12 13 14 15 16 17 18 19 20 21 22 23 24 25 26 27 28 29 30 31 32 33 34 35 36 37 38 39 40 41 42 43 44 45 46 47 48 49 50
062
NZUS43 KILX 101210
HWRILX

AREA WEATHER ROUNDUP
NATIONAL WEATHER SERVICE, LINCOLN IL
600 AM CST WED FEB 10 2016


CITY           SKY/WX    TMP DP  RH WIND       PRES   REMARKS
BLOOMINGTON    CLEAR      8   2  76 NW12      30.06R WCI  -7
6HR MIN TEMP:   8; 6HR MAX TEMP:  12;

CHAMPAIGN      CLEAR      6   1  80 W8        30.05R WCI  -7
6HR MIN TEMP:   6; 6HR MAX TEMP:  15;

DANVILLE       CLEAR      7   1  76 W9        30.00S WCI  -6
6HR MIN TEMP:   7; 6HR MAX TEMP:  13;

DECATUR        PTCLDY    10   3  73 W12       30.09R WCI  -5
6HR MIN TEMP:  10; 6HR MAX TEMP:  14;

EFFINGHAM      PTCLDY    11   6  80 W9        30.13R WCI  -2
FLORA          CLEAR     14   7  72 W13       30.14S WCI   0
6HR MIN TEMP:  14; 6HR MAX TEMP:  19;

GALESBURG      CLEAR      3   0  85 W8        30.09R WCI -10
JACKSONVILLE   CLEAR     10   4  75 W5        30.13S WCI   2
6HR MIN TEMP:   8; 6HR MAX TEMP:  15;

LACON          CLEAR      8   1  70 NW9       30.07S WCI  -5
6HR MIN TEMP:   8; 6HR MAX TEMP:  11;

LAWRENCEVILLE  CLEAR     12   5  73 W12       30.12S WCI  -2
6HR MIN TEMP:  12; 6HR MAX TEMP:  18; 6HR PCP: TRACE;

LITCHFIELD     PTCLDY    11   3  70 NW10      30.12F WCI  -2
$$


CITY           SKY/WX    TMP DP  RH WIND       PRES   REMARKS
LINCOLN        CLEAR     10   4  77 W7        30.11R WCI  -1
6HR MIN TEMP:  10; 6HR MAX TEMP:  14;

MACOMB         PTCLDY     9   4  82 W9        30.13S WCI  -5
MATTOON        PTCLDY     8   2  76 W14       30.07R WCI  -8
6HR MIN TEMP:   8; 6HR MAX TEMP:  14; 6HR PCP: TRACE;

MT CARMEL AP   CLEAR     14   5  67 W12       30.12S WCI   0
OLNEY-NOBLE AP PTCLDY    12   7  79 W9        30.13S WCI   0
PARIS          CLEAR      8   4  85 W14       30.07R WCI  -9
6HR MIN TEMP:   8; 6HR MAX TEMP:  15;

PEORIA         CLEAR      8   0  69 NW7       30.10R WCI  -3
6HR MIN TEMP:   8; 6HR MAX TEMP:  12;

PONTIAC        CLEAR      9   3  77 NW10      30.06R WCI  -5
RANTOUL        CLEAR     10   4  76 W9        30.04R WCI  -3
6HR MIN TEMP:  10; 6HR MAX TEMP:  15;

ROBINSON       CLEAR      9   4  80 W8        30.12R WCI  -4
6HR MIN TEMP:   9; 6HR MAX TEMP:  17;

SPRINGFIELD    PTCLDY     8   2  76 W8        30.12S WCI  -4
6HR MIN TEMP:   8; 6HR MAX TEMP:  14;

TAYLORVILLE    CLEAR     10   5  79 W9        30.12S WCI  -2
$$

...REGIONAL REPORTS...


CITY           SKY/WX    TMP DP  RH WIND       PRES   REMARKS
CHICAGO O`HARE PTCLDY     9   0  67 NW12      29.99R WCI  -6
KANKAKEE       CLEAR     10   3  72 W9        30.02R WCI  -2
MOLINE         CLEAR      8  -1  66 W7        30.10R WCI  -3
MOUNT STERLING CLOUDY    10   4  78 W8        30.12S WCI  -3
MOUNT VERNON   CLEAR     12   1  62 W6        30.15R WCI   3
PITTSFIELD     PTCLDY    13   5  73 W5        30.15R WCI   5
QUINCY         PTCLDY    10   4  76 W6        30.14R WCI   0
ROCKFORD       PTCLDY     7  -1  70 NW10      30.03S WCI  -8
$$


CITY           SKY/WX    TMP DP  RH WIND       PRES   REMARKS
BURLINGTON     PTCLDY     9   4  80 NW6       30.12R WCI  -1
CEDAR RAPIDS   CLOUDY     6   2  83 NW7       30.09S WCI  -6
DES MOINES     CLOUDY    16   7  67 N3        30.13S
KIRKSVILLE     PTCLDY    14   7  73 W7        30.14F WCI   4
OTTUMWA        CLOUDY    13   6  74 NW6       30.13F WCI   4
ST LOUIS       CLOUDY    16   6  65 NW10      30.16F WCI   4
$$


CITY           SKY/WX    TMP DP  RH WIND       PRES   REMARKS
TERRE HAUTE    CLEAR     11   3  70 W8        30.07R WCI  -1
EVANSVILLE     MOCLDY    16   4  59 W14G25    30.14S WCI   2
INDIANAPOLIS   FLURRIES  12   5  73 W15       29.98R WCI  -4
LAFAYETTE      CLOUDY    11   4  73 W12       30.00R WCI  -3
MADISON        PTCLDY     6  -2  69 NW8       29.99F WCI  -7
MILWAUKEE      PTCLDY     9  -1  64 NW9       29.97R WCI  -4
$$






USA.gov is the U.S. government's official web portal to all federal, state and local government web resources and services.